SL-3 R/B, 877

Orbit data source: Space-Track

SL-3 R/B, 877 is space debris in LEO originally from a launch on Fri, 28 Aug 1964 UTC launched from the Tyuratam Missile And Space Complex (TTMTR). Debris objects in space refer to the collection of defunct objects orbiting the Earth. Examples of debris include non-operational satellites, rocket bodies, and fragments generated from explosions, collisions, or faulty payload assembly.

Loading next visibility...
Identifier
877, 1964-053B
Orbit
LEO
Last TLE update
7 hours ago
Origin
Manufacturer
Progress
Mission
Spacecraft
Bus & Motor
BLOK-E, Unknown motor
Mass
1,440 kg wet, 1,440 kg dry
Launch date (UTC)
1964-08-28 (61 years ago)
Launch vehicle
Unknown
Launch site
Tyuratam Missile And Space Complex (TTMTR)
Object type
Payload
Rocket body
Debris
Shape & HBR
Cyl, 3.8 m
Radar Cross Section
10.414 m², Large (>1 m²)

Expand to show TLE details & history

TLE from 7 hours ago
0 SL-3 R/B
1 00877U 64053B   25182.85573981  .00000114  00000-0  46858-4 0  9995
2 00877  65.0783 346.4260 0056016  22.3984 337.9543 14.61097374230140
Epoch: 2025-07-01T20:32Z
TLE epoch observation values (Epoch: 2025-07-01T20:32:15.919Z)
Latitude
-0.00003°
Longitude
118.21446°
Altitude
654.97 km
Speed
7.55 km/s
True Right ascension
23h 05m 42s
True Declination
0° 00' 00"
Sunlit
Object was in daylight at epoch
Visualization orbit readout
Latitude
57.60661°
Longitude
164.12686°
Altitude
670.776 km
Speed
7.542 km/s
Apparent Right ascension
02h 41m 28s
Apparent Declination
12° 10' 01"
Sunlit
Object is in daylight
Visualization observer readout
Local Sidereal Time
15:06:15
Azimuth
7.653° NNE
Elevation
-37.6°
Doppler factor
1
Orbital elements
Apogee altitude
727.764 km
Perigee altitude
648.599 km
Semi-major axis
7,066.318 km
Eccentricity
0.0056
Inclination
65.0783°
RAAN
346.426°
Arg. of periapsis
22.3984°
True anomaly
Unknown
Mean anomaly
337.9543°
Eccentric anomaly
Unknown
Mean motion
3.65387 °/min
Orbital period
98.53 mins
BSTAR
0.000046858
Loading maneuver chart data...
Loading SW <> Apogee altitude chart data...
Loading historical data...
Loading historical data...
Loading historical data...
Loading historical data...
Loading historical data...
Loading historical data...
Loading historical data...
Other satellites on launch #53 in the year 1964 (1964-08-28 UTC)

SL-3 R/B Visibility forecast

Observer location: undefined°, undefined°

Span
Click to sort rows by Start time (UTC) header in descending order
Start Az.
Max El. time (UTC)
Max El. Az.
Max El.
End time (UTC)
End Az.
4 mins2025-07-02 11:28:01.480Z135.063° SSE2025-07-02 11:30:01.480Z105.479° ESE15.617°2025-07-02 11:32:01.480Z77.383° E
7 mins2025-07-02 13:08:01.480Z235.858° WSW2025-07-02 13:11:01.480Z318.782° NNW38.414°2025-07-02 13:15:01.480Z21.739° NNE
4 mins2025-07-02 20:04:01.480Z17.792° NNE2025-07-02 20:06:01.480Z46.891° ENE16.34°2025-07-02 20:08:01.480Z74.114° E
8 mins2025-07-02 21:44:01.480Z323.403° NNW2025-07-02 21:48:01.480Z203.087° SW43.299°2025-07-02 21:52:01.480Z157.334° SSE
|